Greer, SC

6:08 AM EDT on August 26, 2016 (GMT -0400)
Greenville-Spartanburg International

Weather History for KGSP - January, 2014

Change the Weather History Date:

Friday, January 10, 2014

  Actual Average Record
Temperature  
Mean Temperature 43 °F 42 °F  
Max Temperature 48 °F 52 °F 79 °F (1949)
Min Temperature 37 °F 32 °F 2 °F (1982)
Degree Days  
Heating Degree Days 22 23  
Month to date heating degree days 325 230  
Since 1 July heating degree days 1488 1433  
Cooling Degree Days 0 0  
Month to date cooling degree days 0 0  
Year to date cooling degree days 0 0  
Moisture  
Dew Point 41 °F    
Average Humidity 82    
Maximum Humidity 100    
Minimum Humidity 64    
Precipitation  
Precipitation 0.65 in 0.13 in 1.59 in (1972)
Month to date precipitation 1.00 1.23  
Year to date precipitation 1.00 1.23  
Snow  
Snow 0.00 in 0.10 in 6.50 in (2011)
Month to date snowfall 0.0 0.7  
Since 1 July snowfall 0.1 1.2  
Snow Depth 0.00 in    
Sea Level Pressure  
Sea Level Pressure 30.25 in    
Wind  
Wind Speed 8 mph (NNE)    
Max Wind Speed 14 mph    
Max Gust Speed 17 mph    
Visibility 3 miles    
Events Rain    
T = Trace of Precipitation, MM = Missing Value Source: NWS Daily Summary

Daily Weather History Graph

Daily Weather History Graph

Search for Another Location

Airport or City:

Trip Planner

Search our weather history database for the weather conditions in past years. The results will help you decide how hot, cold, wet, or windy it might be!

Date:

Astronomy

Jan. 10, 2014 Rise Set
Actual Time 7:37 AM EST 5:36 PM EST
Civil Twilight 7:09 AM EST 6:03 PM EST
Nautical Twilight 6:38 AM EST 6:35 PM EST
Astronomical Twilight 6:07 AM EST 7:05 PM EST
Moon 1:36 PM EST (1/10) 2:47 AM EST (1/10)
Length of Visible Light 10h 54m
Length of Day
9h 59m
Waxing Gibbous, 75% of the Moon is Illuminated
Jan 10
Waxing Gibbous
Jan 15
Full
Jan 24
Last Quarter
Jan 30
New
Feb 6
First Quarter

Hourly Weather History & Observations

Time (EST) Temp. Windchill Dew Point Humidity Pressure Visibility Wind Dir Wind Speed Gust Speed Precip Events Conditions
12:53 AM 39.9 °F 34.5 °F 30.0 °F 68% 30.41 in 10.0 mi North 8.1 mph - N/A   Overcast
1:53 AM 37.9 °F 31.5 °F 35.1 °F 89% 30.38 in 4.0 mi North 9.2 mph - 0.06 in Rain Light Rain
2:53 AM 37.0 °F 31.0 °F 35.1 °F 93% 30.36 in 5.0 mi NNE 8.1 mph - 0.01 in Rain Light Rain
3:44 AM 37.4 °F 30.3 °F 35.6 °F 93% 30.35 in 6.0 mi North 10.4 mph - 0.02 in   Overcast
3:53 AM 37.9 °F 30.9 °F 36.0 °F 93% 30.35 in 5.0 mi NNE 10.4 mph - 0.02 in   Overcast
4:00 AM 37.4 °F 29.8 °F 35.6 °F 93% 30.34 in 4.0 mi NNE 11.5 mph - N/A   Overcast
4:53 AM 37.0 °F 29.8 °F 35.1 °F 93% 30.32 in 7.0 mi NNE 10.4 mph - 0.01 in   Overcast
5:13 AM 37.4 °F 29.8 °F 35.6 °F 93% 30.30 in 2.5 mi NNE 11.5 mph - 0.04 in Rain Rain
5:18 AM 37.4 °F 30.3 °F 35.6 °F 93% 30.31 in 3.0 mi NNE 10.4 mph - 0.05 in Rain Light Rain
5:31 AM 37.4 °F 29.3 °F 35.6 °F 93% 30.30 in 2.5 mi NNE 12.7 mph - 0.08 in Rain Light Rain
5:39 AM 37.4 °F 30.8 °F 37.4 °F 100% 30.30 in 3.0 mi NNE 9.2 mph - 0.08 in Rain Light Rain
5:47 AM 37.4 °F 32.8 °F 37.4 °F 100% 30.31 in 4.0 mi North 5.8 mph - 0.08 in   Overcast
5:53 AM 37.9 °F 33.5 °F 37.0 °F 97% 30.32 in 3.0 mi North 5.8 mph - 0.08 in Rain Light Rain
6:53 AM 39.0 °F 33.4 °F 37.9 °F 96% 30.30 in 4.0 mi NNE 8.1 mph - 0.05 in Rain Light Rain
7:53 AM 39.9 °F 34.5 °F 37.9 °F 93% 30.30 in 6.0 mi NE 8.1 mph - 0.02 in   Overcast
8:45 AM 39.2 °F 33.6 °F 39.2 °F 100% 30.31 in 1.8 mi NNE 8.1 mph - 0.01 in Rain Light Rain
8:53 AM 41.0 °F 36.4 °F 39.0 °F 93% 30.32 in 2.0 mi NNE 6.9 mph - 0.01 in Rain Light Rain
8:56 AM 41.0 °F 35.8 °F 39.2 °F 93% 30.31 in 1.8 mi NNE 8.1 mph - 0.01 in Rain Light Rain
9:02 AM 41.0 °F 37.1 °F 39.2 °F 93% 30.31 in 2.0 mi NNE 5.8 mph - 0.02 in Rain Light Rain
9:09 AM 41.0 °F 36.4 °F 39.2 °F 93% 30.31 in 1.8 mi NNE 6.9 mph - 0.02 in Rain Light Rain
9:53 AM 42.1 °F 36.6 °F 41.0 °F 96% 30.31 in 1.2 mi NNE 9.2 mph - 0.04 in Rain Rain
10:53 AM 42.1 °F 37.1 °F 41.0 °F 96% 30.31 in 1.2 mi NNE 8.1 mph - 0.11 in   Overcast
11:53 AM 44.1 °F 40.1 °F 42.1 °F 93% 30.27 in 1.2 mi NNE 6.9 mph - 0.07 in Rain Light Rain
12:53 PM 45.0 °F 40.1 °F 44.1 °F 97% 30.22 in 1.2 mi NE 9.2 mph - 0.02 in Rain Light Rain
1:53 PM 46.0 °F 41.9 °F 45.0 °F 96% 30.20 in 1.2 mi ENE 8.1 mph - 0.01 in   Overcast
2:53 PM 46.9 °F - 45.0 °F 93% 30.17 in 1.2 mi NE 8.1 mph - 0.01 in Rain Light Rain
3:00 PM 46.4 °F 41.9 °F 46.4 °F 100% 30.17 in 1.5 mi ENE 9.2 mph - 0.00 in   Overcast
3:09 PM 46.4 °F 42.9 °F 46.4 °F 100% 30.15 in 10.0 mi NE 6.9 mph - 0.00 in   Overcast
3:53 PM 46.9 °F - 46.0 °F 97% 30.16 in 3.0 mi NE 6.9 mph - 0.01 in Rain Light Rain
4:01 PM 46.4 °F 43.5 °F 46.4 °F 100% 30.15 in 1.2 mi NNE 5.8 mph - 0.01 in Rain Light Rain
4:53 PM 46.9 °F - 46.0 °F 97% 30.15 in 1.2 mi NE 6.9 mph - 0.02 in   Overcast
5:53 PM 46.9 °F - 46.0 °F 97% 30.14 in 1.2 mi NNE 5.8 mph - 0.01 in   Overcast
6:53 PM 46.9 °F - 46.0 °F 97% 30.14 in 1.2 mi NNE 5.8 mph - 0.01 in   Overcast
7:53 PM 46.0 °F 43.9 °F 46.0 °F 100% 30.14 in 1.2 mi NE 4.6 mph - 0.00 in   Overcast
8:53 PM 46.0 °F 42.5 °F 45.0 °F 96% 30.12 in 1.2 mi NE 6.9 mph - 0.02 in   Overcast
9:53 PM 46.0 °F 43.1 °F 45.0 °F 96% 30.11 in 1.2 mi NNE 5.8 mph - 0.01 in   Overcast
10:53 PM 46.0 °F 43.1 °F 45.0 °F 96% 30.09 in 1.2 mi NNE 5.8 mph - 0.02 in   Overcast
11:49 PM 46.4 °F 42.9 °F 44.6 °F 93% 30.05 in 2.5 mi NE 6.9 mph - 0.03 in Rain Light Rain
11:53 PM 46.0 °F 42.5 °F 45.0 °F 96% 30.05 in 3.0 mi ENE 6.9 mph - 0.03 in Rain Light Rain